Lapse_Rate
6.1 5.9 6.0 6.1 5.9 6.1 5.8 5.7 5.5 5.5 5.5 5.5 5.7 6.1 5.7 5.5 5.2 5.0 4.8 5.0 5.1 5.1
6.8 6.8 6.7 6.5 6.5 6.7 6.4 6.5 6.5 6.3 6.6 6.4 6.2 6.0 6.1 6.2 6.2 6.0 5.6 5.2 5.2 5.1
6.9 6.8 6.6 6.5 6.7 6.5 6.4 6.2 5.9 5.9 5.9 5.9 6.3 6.1 6.3 6.4 6.0 6.0 5.7 5.6 5.3 5.5
6.3 6.3 6.3 6.3 6.3 6.2 6.1 6.1 6.0 5.8 5.6 5.6 5.7 5.7 5.8 5.6 5.8 5.7 5.5 5.1 4.9 5.0
6.2 6.2 6.2 6.3 6.3 6.2 6.2 6.2 6.2 6.0 6.0 5.9 5.8 5.8 5.5 5.5 5.5 5.5 5.4 5.5 5.5 5.4
6.0 6.1 6.1 6.1 6.1 6.2 6.3 6.3 6.2 6.2 6.2 6.2 6.1 5.8 5.4 5.3 5.4 5.5 5.5 5.5 5.6 5.5
5.8 5.8 6.0 6.2 6.3 6.3 6.3 6.3 6.4 6.3 6.3 6.3 6.2 6.1 5.9 5.6 5.5 5.3 5.4 5.4 5.5 5.7
5.8 5.7 5.9 6.2 6.4 6.5 6.5 6.5 6.5 6.5 6.3 6.4 6.4 6.1 5.9 5.8 5.6 5.6 5.5 5.5 5.6 5.6
6.1 6.0 6.0 6.1 6.1 6.2 6.4 6.6 6.7 6.6 6.6 6.6 6.4 6.4 5.8 5.7 5.6 5.5 5.6 5.7 5.7 5.8
6.0 6.1 6.1 6.2 6.3 6.4 6.4 6.3 6.3 6.4 6.4 6.4 6.5 6.4 6.3 6.1 6.0 5.9 5.9 6.0 6.3 5.9
6.2 6.2 6.3 6.4 6.4 6.5 6.6 6.7 6.7 6.6 6.6 6.7 6.5 6.2 6.1 6.0 6.1 6.2 6.1 6.1 6.2 6.2
6.3 6.3 6.3 6.3 6.5 6.6 6.8 6.9 7.0 7.1 7.1 7.0 6.8 6.6 6.4 6.3 6.2 6.3 6.2 5.9 5.9 5.9
6.2 6.2 6.2 6.2 6.2 6.3 6.4 6.7 6.8 7.0 6.9 6.9 7.0 6.8 6.5 6.4 6.3 6.2 6.1 6.0 6.0 5.9
6.1 6.2 6.5 6.7 6.7 6.6 6.6 6.5 6.6 6.9 7.0 6.9 7.0 6.9 6.7 6.6 6.4 6.3 6.1 6.0 6.0 6.1
Wind_Speed
5 3 4 8 7 7 7 7 9 9 9 8 5 7 8 5 5 5 5 8 6 6
6 6 4 3 3 2 4 3 7 8 8 7 7 7 7 5 5 5 5 4 7 6
5 6 4 3 4 4 4 3 4 6 7 8 7 7 7 6 7 6 5 5 8 7
6 5 5 4 4 4 4 4 4 3 5 7 8 8 8 7 7 8 7 4 6 5
6 6 5 4 5 4 5 3 4 4 6 6 7 7 7 7 7 8 7 7 5 5
8 7 7 6 5 3 5 5 4 5 4 4 5 7 7 6 7 7 6 6 7 7
8 9 10 9 8 6 5 5 4 4 5 5 5 5 5 5 6 6 5 5 4 5
9 8 8 8 9 7 6 6 5 5 4 5 4 4 5 5 5 6 6 5 4 4
11 11 11 10 9 8 7 7 6 6 5 6 5 8 6 6 6 6 6 5 4 4
10 10 10 11 11 9 8 7 7 7 7 7 7 9 11 10 6 5 5 5 5 4
9 10 11 10 10 10 8 8 7 7 9 8 7 13 13 12 6 6 6 5 5 6
8 9 10 10 10 9 8 8 8 8 8 7 6 12 12 11 6 4 5 7 6 6
10 9 9 10 10 8 7 8 6 7 7 8 6 11 14 13 5 5 5 5 5 8
10 9 9 10 9 9 8 7 8 7 6 9 8 9 16 17 7 6 5 5 4 5
Wind_Direction
25 348 190 214 211 220 222 225 224 215 220 217 199 156 168 177 174 176 170 175 181 179
32 24 20 338 291 232 253 223 225 207 208 205 186 174 170 171 167 168 169 205 195 199
26 4 355 344 292 267 257 249 224 206 197 182 175 170 167 180 181 179 196 202 199 198
11 352 339 324 315 288 275 245 241 211 179 177 171 177 182 186 174 191 188 191 207 201
359 347 325 315 300 305 291 263 231 195 187 191 191 181 182 180 179 190 192 196 194 203
357 351 330 314 301 288 286 272 223 191 182 175 197 189 185 189 192 199 198 201 197 203
347 340 340 335 319 309 290 276 258 227 190 189 187 193 182 198 191 197 204 201 207 217
345 345 336 328 316 305 287 273 261 234 206 203 193 204 195 187 189 193 189 209 202 219
348 342 336 330 325 303 286 280 263 244 226 210 199 176 204 204 198 209 206 196 209 209
347 339 332 327 319 313 292 270 248 248 242 227 223 181 200 201 199 202 208 205 181 204
340 332 330 326 325 320 308 280 264 236 231 232 228 179 198 196 209 198 209 199 211 192
328 321 323 326 322 318 310 298 278 272 257 231 225 180 195 192 204 196 207 219 219 213
315 317 312 312 315 309 303 296 280 262 268 252 227 190 203 195 190 190 205 210 216 214
314 317 318 310 311 310 303 285 282 269 239 258 241 232 208 203 200 199 201 214 195 200